Regional Weather Roundup
Issued by NWS

Home | Current Version | Previous Version | Text Only | Print | Product List | Glossary On
Versions: 1 2 3 4 5 6 7 8 9 10 11 12 13 14 15 16 17 18 19 20 21 22 23 24 25 26 27 28 29 30 31 32 33 34 35 36 37 38 39 40 41 42 43 44 45 46 47 48 49 50
018
ASCA42 TJSJ 102110
RWRPR
PUERTO RICO/U.S. VIRGIN ISLANDS HOURLY WEATHER ROUNDUP
NATIONAL WEATHER SERVICE SAN JUAN PR
500 PM AST SAT DEC 10 2016

PRZ001>002-007>008-010-102200-
PUERTO RICO

CITY           SKY/WX    TMP DP  RH WIND       PRES   REMARKS
SAN JUAN LMM   LGT RAIN  84  75  74 E9        30.02S HX  92
AGUADILLA      CLOUDY    81  73  78 E17       30.03S
CEIBA          CLEAR     82  73  74 E7        30.05R
$$

VIZ001>002-102200-
U.S. VIRGIN ISLANDS

CITY           SKY/WX    TMP DP  RH WIND       PRES   REMARKS
CHARLOTTE AMA  PTCLDY    84  73  70 E9        30.02R HX  91
CHRISTIANSTED  PTCLDY    82  72  69 E12       30.02R
$$

HOURLY WEATHER ROUNDUP FOR THE NEWS MEDIA

CITY           SKY/WX    TMP DP  RH WIND       PRES   REMARKS
ORLANDO        MOSUNNY   68  52  56 NE14      30.30R
NEW YORK       MOCLDY    36  14  40 W15G23    30.37R WCI  27
NEWARK         PTCLDY    35  15  44 W15       30.37R WCI  25
CHICAGO        CLOUDY    23  13  65 SW7       30.41F WCI  15
HARTFORD       CLEAR     29   6  38 W8        30.30R WCI  21
BOSTON         PTCLDY    28   4  35 NW15      30.31R WCI  16
DALLAS         CLOUDY    49  29  46 S20       30.28F
PHILADELPHIA   CLOUDY    37  12  35 W17       30.40R WCI  27
LOS ANGELES    PTSUNNY   63  54  72 S3        30.13F HAZE
WASHINGTON DC  PTCLDY    33  10  38 NW14      30.47R WCI  23



USA.gov is the U.S. government's official web portal to all federal, state and local government web resources and services.